Location: Palomar Mountain Lodge
(33.3110°N, 116.8495°W)
Time: 15:37:26
(UTC-07:00)

Gbstr 26 Del rocket - Pass Details

Date: 12 July 2018
Orbit: 493 x 1265 km, 51.8° (Epoch: 18 July)

Event Time Altitude Azimuth Distance (km) Brightness Sun altitude
Rises 21:08:39 0° 213° (SSW) 3,196 6.7 -13.2°
Reaches altitude 10° 21:11:20 10° 208° (SSW) 2,146 5.7 -13.6°
Maximum altitude 21:16:00 50° 133° (SE) 769 3.1 -14.4°
Drops below altitude 10° 21:19:57 10° 58° (ENE) 1,813 5.3 -15.0°
Sets 21:22:03 0° 52° (NE) 2,648 6.2 -15.4°
